Location: Newark
(41.6500°N, 71.4833°W)
Time: 20:33:11
(UTC+00:00)

deb Explorer IX - Pass Details

Date: 24 January 2020
Orbit: 549 x 1099 km, 38.8° (Epoch: 22 February)

Event Time Altitude Azimuth Distance (km) Brightness Sun altitude
Rises 04:43:07 0° 259° (W) 3,868 - -67.5°
Reaches altitude 10° 04:45:51 10° 257° (WSW) 2,937 - -67.5°
Maximum altitude 04:53:06 71° 176° (S) 1,150 - -67.7°
Drops below altitude 10° 05:00:08 10° 94° (E) 2,846 - -67.7°
Sets 05:02:45 0° 92° (E) 3,743 - -67.7°
